TIME,DELAY(SENSOR),PRES,T(CTD),SAL,OXYGEN,RAWTEMP,T(OPTODE),TCPHASE,FLUOR,BETA(BETA700),BETA(BETA412),BETA(BETA440),CDOM,C(CSC),ED(ED411.90),ED(ED443.80),ED(ED489.40),ED(ED554.70),LU(LU412.20),LU(LU443.80),LU(LU489.40),LU(LU555.00),COMP,TILTX,TILTX(TILTY),CHECK
1365264893,5804,496.8099975585937500,15.5909996032714840,36.1018981933593750,199.1468963623047000,235.2770996093750000,15.5853796005249020,33.7724494934082000,50,101,95,80,70,11407,2146956781,2147516873,2147273353,2147470372,2147082331,2146950692,2147662756,2147126464,1240,-1,8,23183
1365265016,5805,487.0599975585937500,15.7495002746582030,36.1285018920898440,199.9575958251953000,230.2787933349609400,15.7359695434570310,33.6517906188964840,50,101,97,81,69,11408,2146963913,2147515446,2147274797,2147469284,2147082980,2146953965,2147665188,2147126683,490,-1,8,55986
1365265200,5805,473.9100036621094000,15.8450002670288090,36.1451988220214840,199.8582000732422000,226.6295013427734400,15.8459100723266600,33.6053886413574200,51,101,96,80,70,11403,2146959634,2147515273,2147274285,2147468141,2147084809,2146952448,2147658331,2147123876,2859,-1,8,51169
1365265338,5805,462.5799865722656000,16.1688003540039060,36.2053985595703100,203.2895965576172000,215.8601989746093800,16.1703891754150400,33.2495307922363300,51,100,95,80,70,11407,2146961142,2147513490,2147270363,2147465993,2147083117,2146953417,2147659510,2147123501,340,-2,8,155
1365265510,5804,449.1499938964844000,16.3980007171630860,36.2425003051757800,204.0915985107422000,208.4788970947265600,16.3928108215332030,33.0978317260742200,50,102,95,81,70,11405,2146962651,2147515318,2147270710,2147466907,2147084836,2146955190,2147662848,2147126326,2826,-1,8,3235
1365265626,5805,438.3200073242187500,16.6189994812011720,36.2797012329101560,204.6316070556640600,200.2359008789062500,16.6412296295166000,32.9503211975097660,51,103,96,80,68,11404,2146960822,2147514861,2147272978,2147465408,2147083209,2146957440,2147659977,2147127652,2941,-1,8,27319
1365265741,5804,426.8500061035156000,16.8369007110595700,36.3232994079589840,209.0673980712890600,193.7019958496093800,16.8381805419921880,32.6066093444824200,50,101,97,80,69,11401,2146959789,2147516251,2147269485,2147461284,2147082404,2146952009,2147657938,2147123419,1886,-1,8,5699
1365265846,5804,415.7399902343750000,16.9472999572753900,36.3428001403808600,210.7024993896484400,189.5464019775390600,16.9634609222412100,32.4578399658203100,51,101,96,80,70,11398,2146959241,2147516032,2147267117,2147460269,2147087241,2146952036,2147656018,2147127990,653,-1,8,20251
1365265949,5807,404.4200134277344000,17.1651992797851560,36.3829994201660160,214.3195953369140600,182.9745941162109400,17.1616191864013670,32.1680984497070300,50,102,97,80,68,11402,2146953920,2147511552,2147266514,2147461796,2147083273,2146954669,2147656996,2147127451,3574,-1,8,2818
1365266040,5807,394.0100097656250000,17.3449001312255860,36.4197006225585940,217.1186065673828000,177.1634063720703000,17.3368892669677730,31.9374198913574220,51,101,96,80,68,11404,2146958454,2147512694,2147269686,2147457828,2147077211,2146952914,2147650980,2147126217,2692,-1,8,6665
1365266140,5803,382.8500061035156000,17.4815998077392580,36.4454994201660160,219.0671997070312500,172.5213928222656200,17.4769306182861330,31.7703990936279300,51,103,97,81,69,11398,2146957558,2147512640,2147266496,2147457334,2147069412,2146955382,2147654235,2147126747,2220,-1,8,8445
1365266251,5805,372.4500122070312500,17.6030998229980470,36.4677009582519500,220.6636047363281200,168.5641021728515600,17.5963401794433600,31.6324806213378900,50,103,95,81,68,11394,2146956598,2147512530,2147263488,2147457325,2147078555,2146955785,2147652626,2147126473,2105,-1,8,58077
1365266378,5805,361.5700073242187500,17.6383991241455080,36.4747009277343750,221.3809967041015600,167.0379943847656200,17.6423892974853500,31.5742397308349600,50,104,96,80,68,11399,2146959561,2147511405,2147266404,2147452425,2147083026,2146960018,2147652937,2147130560,2417,-1,8,5549
1365266519,5807,350.1499938964844000,17.7894992828369140,36.5027008056640600,223.4302978515625000,162.3370971679687500,17.7842807769775400,31.4047698974609380,50,107,97,81,66,11395,2146959286,2147511478,2147266020,2147455524,2147079232,2146960649,2147652269,2147127405,1903,-1,8,28574
1365266658,5804,339.2399902343750000,17.8747997283935550,36.5155982971191400,224.3813018798828000,159.5485992431640600,17.8684597015380860,31.3182201385498050,51,104,96,80,68,11395,2146957997,2147514514,2147264548,2147452397,2147075264,2146959250,2147652342,2147126683,1621,-2,8,77
1365266804,5804,326.7500000000000000,17.9148006439209000,36.5074996948242200,222.5605926513672000,158.0243988037109400,17.9144802093505860,31.3908901214599600,51,105,96,81,67,11391,2146957421,2147513974,2147264923,2147452553,2147078427,2146961563,2147656146,2147126573,3437,-1,8,5684
1365266919,5803,315.6000061035156000,18.0356998443603500,36.5238990783691400,219.9033050537109400,154.2509002685547000,18.0284404754638670,31.4772701263427730,50,103,97,81,67,11398,2146957348,2147514084,2147268032,2147453028,2147074907,2146961581,2147648566,2147126610,2882,-1,8,6705
1365267034,5805,304.5400085449219000,18.1902008056640620,36.5523986816406250,221.2595977783203000,148.3401947021484400,18.2069797515869140,31.3266105651855470,50,104,96,81,67,11393,2146959021,2147514678,2147264045,2147452077,2147082130,2146961536,2147650322,2147128804,2474,-2,8,33339
1365267151,5806,293.0899963378906000,18.3146991729736330,36.5690002441406250,224.1643981933593800,144.7032928466797000,18.3168792724609380,31.1289100646972660,50,101,96,82,68,11399,2146956900,2147516205,2147266496,2147446848,2147081499,2146960338,2147652662,2147129225,2021,-1,8,46204
1365267266,5802,281.8099975585937500,18.3927001953125000,36.5700988769531250,224.0720977783203000,142.6342010498047000,18.3794193267822270,31.1056995391845700,50,104,97,82,66,11396,2146962166,2147513170,2147265051,2147450432,2147085705,2146959451,2147655780,2147129371,1376,-2,8,28215
1365267381,5805,270.7799987792969000,18.4249000549316400,36.5503997802734400,218.3625030517578000,141.3506927490234400,18.4182090759277340,31.3831501007080080,50,105,97,81,67,11390,2146954038,2147514422,2147263652,2147451712,2147076598,2146968137,2147654848,2147127945,735,-1,8,15608
1365267498,5806,259.7300109863281000,18.6266994476318360,36.5811004638671900,220.6517028808593800,134.6204071044922000,18.6217098236084000,31.1734199523925780,50,107,97,83,68,11390,2146955776,2147514285,2147266697,2147450742,2147080310,2146969938,2147662125,2147128256,176,-2,8,6122
1365267613,5804,248.4499969482422000,18.7376995086669920,36.5873985290527340,223.4989929199218800,131.0509033203125000,18.7296791076660160,30.9796199798584000,50,105,97,80,68,11390,2146958454,2147514541,2147263625,2147451428,2147086025,2146975094,2147672283,2147128155,3245,-1,8,19485
1365267728,5805,237.4700012207031200,18.7966003417968750,36.5858993530273440,224.4257965087890600,129.0296020507812500,18.7908401489257800,30.9052104949951170,51,106,97,82,67,11386,2146959030,2147514459,2147265234,2147448237,2147082121,2146983771,2147691428,2147130770,2454,-1,8,43609
1365267857,5806,225.6399993896484400,18.9199008941650400,36.5918006896972660,225.0554046630859400,124.9956970214843800,18.9129199981689450,30.8201103210449220,52,107,96,82,67,11384,2146955830,2147511698,2147267126,2147448804,2147082084,2146980251,2147687890,2147130496,2193,-1,8,55409
1365267984,5800,214.0399932861328000,19.0478000640869140,36.5979995727539060,225.2301025390625000,120.6424026489257800,19.0447101593017580,30.7532100677490230,52,113,98,82,66,11380,2146957650,2147516891,2147264466,2147446838,2147084333,2147007149,2147744073,2147130450,1657,-1,9,43900
1365268101,5806,203.7200012207031200,19.1404991149902340,36.6020011901855500,227.3197021484375000,117.0428009033203100,19.1537208557128900,30.6012401580810550,52,113,98,84,67,11371,2146957403,2147516278,2147268187,2147447204,2147087844,2147036745,2147786541,2147134326,1292,-2,8,48410
1365268180,5806,196.8699951171875000,19.2924003601074220,36.6072006225585940,229.8930969238281200,112.5453033447265600,19.2899799346923830,30.4149894714355470,55,121,99,84,67,11367,2146958006,2147513764,2147266084,2147445796,2147089115,2147034011,2147784036,2147135460,570,-1,8,26465
1365268235,5806,192.1699981689453000,19.3260993957519530,36.6105003356933600,232.5285034179687500,111.3273010253906200,19.3268909454345700,30.2708892822265620,56,117,100,84,67,11358,2146957275,2147513837,2147269741,2147446235,2147093193,2147065353,2147839579,2147137161,757,-1,8,43295
1365268290,5804,187.3500061035156200,19.3878002166748050,36.6148986816406250,234.3619995117187500,109.3268966674804700,19.3875198364257800,30.1566791534423830,55,115,99,84,66,11361,2146956342,2147516022,2147273408,2147445037,2147095076,2147094665,2147896265,2147140626,1195,-1,8,16309
1365268345,5804,182.4400024414062500,19.4253997802734380,36.6175003051757800,234.6289062500000000,108.1556015014648400,19.4230308532714840,30.1284008026123050,55,117,99,83,66,11366,2146957641,2147517778,2147271954,2147446491,2147097371,2147115309,2147934820,2147141440,1525,-1,8,28244
1365268420,5805,176.1999969482422000,19.5303001403808600,36.6273002624511700,233.3477020263672000,104.8740005493164000,19.5225296020507800,30.1468505859375000,54,115,99,84,67,11366,2146957284,2147514752,2147269010,2147444187,2147098285,2147115273,2147914925,2147143186,1371,-2,8,26769
1365268475,5806,172.0200042724609400,19.5634002685546880,36.6292991638183600,234.7234954833984400,103.6438980102539000,19.5598392486572270,30.0650501251220700,56,117,102,84,66,11365,2146959131,2147517622,2147267675,2147444434,2147095296,2147074176,2147828086,2147141202,757,-2,8,19917
1365268530,5808,167.8200073242187500,19.5960006713867200,36.6342010498046900,235.9308013916015600,102.2951965332031200,19.6007404327392580,29.9899997711181640,55,115,99,84,65,11364,2146961179,2147518720,2147272548,2147445833,2147102061,2147102683,2147877494,2147141312,3568,-2,8,33756
1365268585,5805,163.5899963378906200,19.6348991394042970,36.6334991455078100,241.5475006103515600,101.2657012939453100,19.6319694519042970,29.7147808074951170,59,123,100,84,64,11356,2146959625,2147524589,2147281545,2147443328,2147126180,2147258861,2148153874,2147156964,3232,-2,8,63823
1365268640,5804,159.3999938964843800,19.6779003143310550,36.6389999389648440,249.2467956542968800,99.9307632446289000,19.6724796295166000,29.3503608703613280,62,125,103,87,63,11342,2146960027,2147524818,2147283876,2147442413,2147140123,2147324507,2148260854,2147164150,2499,-2,9,45819
1365268695,5803,155.1799926757812500,19.6828002929687500,36.6391983032226560,252.6513977050781200,99.7090911865234400,19.6791992187500000,29.1980094909667970,61,127,103,85,64,11343,2146957641,2147522724,2147281517,2147444132,2147137883,2147277979,2148158637,2147154953,2018,-1,8,60247
1365268774,5804,149.4100036621093800,19.6868991851806640,36.6403999328613300,254.5489044189453000,99.4868164062500000,19.6859493255615230,29.1127796173095700,63,129,102,88,63,11338,2146958189,2147531218,2147298386,2147443392,2147183972,2147528256,2148572507,2147181540,1689,-1,8,59166
1365268829,5805,145.7799987792968800,19.6954994201660160,36.6393013000488300,255.1020965576172000,99.3360595703125000,19.6905193328857420,29.0870895385742200,62,131,102,86,63,11341,2146959744,2147534838,2147299904,2147443364,2147201206,2147592868,2148675602,2147186304,1564,-2,9,4647
1365268884,5805,142.1199951171875000,19.6947994232177730,36.6399993896484400,255.3652038574218800,99.2773437500000000,19.6923007965087900,29.0749893188476560,61,127,102,86,63,11342,2146963611,2147533101,2147305645,2147444013,2147213952,2147647433,2148736237,2147189677,1645,-1,9,11466
1365268951,5807,137.8600006103515600,19.7119007110595700,36.6399993896484400,255.7053985595703000,98.7229537963867200,19.7091293334960940,29.0532207489013670,62,126,103,87,63,11337,2146961179,2147534208,2147300480,2147443227,2147218395,2147599597,2148624438,2147183268,1706,-1,9,53317
1365269006,5808,134.4400024414062500,19.7247009277343750,36.6417007446289060,256.2210998535156000,98.3812026977539000,19.7194995880126950,29.0268898010253900,63,128,103,86,63,11336,2146966116,2147542537,2147316041,2147443849,2147281782,2147899346,2149106578,2147212845,1835,-1,9,34907
1365269085,5806,130.1100006103515600,19.7304000854492200,36.6421012878418000,257.0614013671875000,98.1433029174804700,19.7267208099365230,28.9879493713378900,65,141,105,87,64,11338,2146962011,2147536347,2147301714,2147438674,2147247716,2147687414,2148715867,2147188928,1509,-2,9,37387
1365269164,5805,126.9400024414062500,19.7294998168945300,36.6422996520996100,257.3056030273437500,98.1520462036132800,19.7264499664306640,28.9775199890136720,65,126,103,88,62,11336,2146967972,2147552384,2147332726,2147444315,2147365110,2148192210,2149516690,2147235986,1310,-1,9,24341
1365269267,5803,122.9800033569336000,19.7303009033203120,36.6411018371582000,257.3432006835937500,98.1498870849609400,19.7265205383300780,28.9759407043457030,66,128,102,85,62,11337,2146969334,2147559369,2147343085,2147446683,2147419154,2148367314,2149750464,2147251209,1167,-2,9,6341
1365269372,5804,119.0000000000000000,19.7301006317138670,36.6394996643066400,256.9213867187500000,98.1710281372070300,19.7258796691894530,28.9943504333496100,67,129,101,85,63,11334,2146970770,2147567442,2147358866,2147447963,2147498130,2148625115,2150104722,2147274697,1035,-2,9,11342
1365269487,5804,114.8300018310546900,19.7299003601074220,36.6385993957519500,255.9618988037109400,98.1703262329101600,19.7259006500244140,29.0352706909179700,68,125,103,87,63,11328,2146975972,2147578660,2147377051,2147445632,2147597778,2148917412,2150512073,2147303643,971,-2,9,24596
1365269602,5806,110.9100036621093800,19.7306995391845700,36.6383018493652340,255.4660949707031200,98.1200866699218800,19.7274208068847660,29.0558300018310550,67,125,102,86,64,11332,2146979154,2147586313,2147391360,2147448082,2147694765,2149184109,2150875318,2147331346,955,-1,9,27249
1365269713,5808,106.6100006103515600,19.7525997161865230,36.6403999328613300,256.4208984375000000,97.4231872558593800,19.7485694885253900,29.0061607360839840,69,128,103,87,63,11331,2146987419,2147598710,2147409874,2147447652,2147843821,2149575140,2151389878,2147364370,929,-2,9,6272
1365269792,5804,102.5599975585937500,19.7614002227783200,36.6389999389648440,256.9812011718750000,97.1698532104492200,19.7562599182128900,28.9788208007812500,70,130,103,87,63,11325,2146992045,2147616941,2147440722,2147448813,2148022720,2150057344,2152019190,2147414628,682,-2,8,55113
1365269871,5807,98.5800018310546900,19.7674007415771500,36.6397018432617200,257.8456115722656000,96.9382400512695300,19.7632904052734380,28.9391002655029300,70,129,103,86,63,11318,2147000036,2147636004,2147472941,2147448603,2148265554,2150671917,2152840182,2147474578,127,-2,9,8716
1365269926,5805,95.8000030517578100,19.7730998992919920,36.6404991149902340,258.2258911132812500,96.6005172729492200,19.7735404968261720,28.9188499450683600,71,130,105,87,62,11320,2146992356,2147609554,2147422372,2147445942,2148054061,2149911332,2151707867,2147401901,3418,-2,9,62295
1365269983,5804,93.0400009155273400,19.7968006134033200,36.6314010620117200,257.7514953613281000,95.9983367919921900,19.7918205261230470,28.9312705993652340,69,125,101,86,63,11327,2147010953,2147656722,2147503972,2147449792,2148535341,2151248356,2153569782,2147538130,3514,-2,9,22724
1365270038,5803,90.5599975585937500,19.8229007720947270,36.6315002441406250,255.0104980468750000,95.2129287719726600,19.8156604766845700,29.0382709503173830,71,123,102,87,64,11330,2147016676,2147669595,2147516160,2147453293,2148712850,2151631241,2154040054,2147580507,3419,-1,9,48720
1365270093,5804,88.3300018310546900,19.8318004608154300,36.6311988830566400,255.1502075195312500,94.8631134033203100,19.8262805938720700,29.0280208587646500,72,129,103,87,64,11323,2147024630,2147676699,2147541403,2147454006,2148880438,2151957778,2154443446,2147622656,229,-1,8,63112
1365270148,5808,86.2399978637695300,19.8332996368408200,36.6323013305664060,255.1817016601562500,94.7071228027343800,19.8310203552246100,29.0244503021240230,74,128,103,87,62,11324,2147025417,2147668370,2147528950,2147455232,2148846994,2151699803,2154017673,2147598802,447,-1,9,30172
1365270203,5802,84.2399978637695300,19.8397998809814450,36.6314010620117200,255.1799011230468800,94.5226287841796900,19.8366203308105470,29.0222892761230470,77,129,103,86,62,11318,2147037238,2147705664,2147584539,2147459401,2149273636,2152722468,2155443785,2147721115,574,-2,8,27949
1365270258,5806,82.3099975585937500,19.8530998229980470,36.6296005249023440,254.9026031494140600,94.0998306274414000,19.8494491577148440,29.0287609100341800,79,129,103,86,63,11321,2147043611,2147709028,2147593755,2147462875,2149410907,2152914989,2155653677,2147753270,600,-2,8,48656
1365270337,5806,79.1699981689453100,19.8806991577148440,36.6282005310058600,253.6174011230468800,93.2242431640625000,19.8760395050048830,29.0730094909667970,81,130,101,86,63,11312,2147060598,2147731026,2147632877,2147466102,2149806363,2153594697,2156480969,2147852178,500,-1,8,40231
1365270392,5806,76.3000030517578100,19.8948993682861330,36.6272010803222660,251.9147033691406200,92.7352371215820300,19.8908901214599600,29.1408290863037100,80,126,101,87,64,11319,2147074596,2147761005,2147673069,2147471341,2150278043,2154431113,2157541522,2147981348,829,-2,8,3651
1365270447,5807,73.3300018310546900,19.9158992767334000,36.6296005249023440,251.0493011474609400,92.0127868652343800,19.9128303527832030,29.1693305969238280,89,129,102,86,65,11308,2147091291,2147780022,2147711286,2147477522,2150698550,2155125851,2158418752,2148097517,981,-1,9,39354
1365270502,5803,70.3000030517578100,19.9416007995605470,36.6330986022949200,254.1065979003906200,91.1124191284179700,19.9401702880859380,29.0249290466308600,103,136,104,89,64,11291,2147113106,2147812077,2147755748,2147480996,2151300416,2155996608,2159436224,2148268233,1048,-1,9,23606
1365270557,5802,67.3300018310546900,19.9594001770019530,36.6334991455078100,258.8457946777344000,90.6085891723632800,19.9554691314697270,28.8162994384765620,129,157,107,89,61,11249,2147141668,2147852041,2147811913,2147492790,2151982153,2157018176,2160786779,2148489115,1268,-1,9,27616
1365270612,5803,64.2600021362304700,19.9698009490966800,36.6337013244628900,261.2235107421875000,90.2222671508789000,19.9672107696533200,28.7113990783691400,122,152,107,90,62,11228,2147178459,2147890121,2147871954,2147499428,2152832502,2158202267,2162250468,2148794651,1456,-1,8,29171
1365270669,5804,61.0600013732910160,19.9906005859375000,36.6335983276367200,261.5751953125000000,89.5766067504882800,19.9868202209472660,28.6887092590332030,138,159,110,96,62,11190,2147228050,2147954212,2147958226,2147511003,2154096155,2160003510,2164385161,2149212534,1602,-2,8,13013
1365270724,5804,57.9599990844726560,20.0002002716064450,36.6338005065918000,262.8487854003906000,89.2254333496093800,19.9974899291992200,28.6312294006347660,143,153,110,91,62,11206,2147292059,2148040356,2148100928,2147542089,2155651830,2162196416,2167057042,2149765659,1385,-2,9,38410
1365270779,5807,54.7999992370605500,20.0160999298095700,36.6319999694824200,261.9613952636719000,88.6830368041992200,20.0139694213867200,28.6612491607666000,140,152,109,89,62,11212,2147368018,2148139940,2148258349,2147582774,2157631186,2164867602,2170084644,2150448466,1221,-2,9,17359
1365270921,5806,48.0600013732910160,20.0741996765136720,36.6213989257812500,263.7322998046875000,86.7548294067382800,20.0725498199462900,28.5635204315185550,136,160,111,92,61,11157,2147585490,2148398363,2148648795,2147703085,2162534089,2171182125,2176998098,2152215003,406,-1,8,56528
1365270954,5803,46.2400016784668000,20.0988998413085940,36.6171989440918000,263.5141906738281000,86.0793762207031200,20.0930805206298830,28.5641307830810550,131,153,108,92,63,11169,2147661613,2148491419,2148755867,2147714285,2164631488,2173997933,2180095744,2152943186,140,-2,9,28637
1365270989,5806,44.3499984741210940,20.1028995513916000,36.6169013977050800,263.6683044433594000,85.7643737792968800,20.1026496887207030,28.5536994934082030,129,152,109,92,62,11168,2147734153,2148566619,2148811730,2147703734,2166437257,2176195757,2182345746,2153486966,3370,-1,8,24856
1365271022,5805,42.5699996948242200,20.1061992645263670,36.6179008483886700,263.7059936523437500,85.5971832275390600,20.1077308654785160,28.5500297546386720,124,153,110,91,61,11172,2147827940,2148684626,2148928365,2147708690,2169160420,2179908717,2186421805,2154481408,3072,-2,9,27855
1365271067,5805,40.3499984741210940,20.1310005187988280,36.6147003173828100,262.6903076171875000,84.6832427978515600,20.1355094909667970,28.5805206298828120,122,150,109,91,60,11179,2147952155,2148819181,2149079670,2147727817,2172453302,2183976740,2190535259,2155574528,2794,-1,7,25208
1365271112,5803,38.2900009155273440,20.1602001190185550,36.6136016845703100,262.6662902832031000,83.7852172851562500,20.1628093719482420,28.5700798034667970,121,152,109,92,61,11167,2148088923,2148962916,2149265764,2147773074,2176066166,2188555410,2195037357,2156846765,2836,-1,9,23458
1365271145,5803,36.8199996948242200,20.1814002990722660,36.6134986877441400,262.7820129394531000,83.0003128051757800,20.1866703033447270,28.5554599761962900,125,151,112,92,63,11155,2148221202,2149105389,2149442569,2147823588,2179087350,2192040758,2198617426,2157848301,2905,-1,9,36426
1365271202,5805,34.4799995422363300,20.2098007202148440,36.6091995239257800,263.3685913085937500,81.7745971679687500,20.2239303588867200,28.5156497955322270,119,155,111,92,63,11142,2148455680,2149366473,2149770057,2147931419,2185015360,2198946587,2205295360,2160134582,3087,-1,9,61824
1365271247,5806,32.6899986267089840,20.3642005920410160,36.5750999450683600,264.3747863769531000,77.4735565185546900,20.3547401428222660,28.4202995300292970,115,158,111,93,61,11114,2148667501,2149601408,2150096667,2148060498,2189882221,2204735195,2211352493,2161892416,3289,-1,8,38889
1365271306,5807,30.8400001525878900,20.4325008392334000,36.5606002807617200,266.8446044921875000,74.9111175537109400,20.4327106475830080,28.2872200012207030,107,166,113,95,61,11108,2148833389,2149737828,2150167606,2148007588,2195260818,2210908132,2217196077,2164001984,2675,-3,8,7904
1365271387,5803,28.7000007629394530,20.4444999694824220,36.5583992004394500,270.5347900390625000,74.2985076904296900,20.4513492584228500,28.1312007904052730,101,170,113,94,60,11092,2149101385,2150034459,2150485339,2148078326,2202504877,2219267136,2225394834,2166951972,2309,0,8,61248
1365271456,5804,26.8799991607666000,20.4810009002685550,36.5475997924804700,270.9068908691406000,73.0972900390625000,20.4879093170166000,28.1014900207519530,97,168,113,94,59,11088,2149257462,2150161069,2150620708,2148145755,2206096210,2222641993,2228173046,2168267931,2531,-1,9,38265
